Home   Weather   City of Pacific   Past weeks
Flag for USA

Past Weather in City of Pacific, Washington, USA — Yesterday and Last 2 Weeks

Currently: 55 °F. Fog. (Weather station: Thun Field, USA). See more current weather

Past Weather in City of Pacific — Graph

°F

City of Pacific Temperature Yesterday

Maximum temperature yesterday: 63 °F (at 9:15 pm)
Minimum temperature yesterday: 45 °F (at 6:55 am)
Average temperature yesterday: 52 °F

High & Low Weather Summary for the Past Weeks

 TemperatureHumidityPressure
High66 °F (Nov 14, 11:35 am)100% (Nov 13, 3:15 pm)30.54 "Hg (Nov 13, 3:15 pm)
Low27 °F (Nov 17, 5:15 am)49% (Nov 15, 10:15 am)29.50 "Hg (Nov 15, 11:15 am)
Average46 °F91%30.15 "Hg
* Reported Nov 13 3:15 pm — Nov 28 3:15 pm, City of Pacific. Weather by CustomWeather, © 2021

Note: Actual official high and low records may vary slightly from our data, if they occured in-between our weather recording intervals... More about our weather records

City of Pacific Weather History for the Previous 24 Hours

Scroll right to see more
 ConditionsComfort  
Time TempWeatherWind HumidityBarometerVisibility
3:15 pm
Sun, Nov 28
55 °FLight rain. Overcast.No wind100%30.11 "Hg2 mi
2:55 pm57 °FDrizzle. Mostly cloudy.5 mph94%30.11 "Hg3 mi
2:35 pm57 °FDrizzle. Overcast.9 mph88%30.10 "Hg4 mi
2:15 pm59 °FMostly cloudy.7 mph82%30.10 "Hg7 mi
1:35 pm61 °FOvercast.10 mph68%30.09 "Hg10 mi
1:15 pm63 °FOvercast.8 mph64%30.08 "Hg10 mi
12:55 pm63 °FOvercast.9 mph59%30.07 "Hg10 mi
12:15 pm63 °FMostly cloudy.10 mph59%30.08 "Hg10 mi
11:55 am63 °FPartly sunny.12 mph59%30.09 "Hg10 mi
11:15 am61 °FPartly sunny.12 mph59%30.09 "Hg10 mi
10:55 am61 °FScattered clouds.10 mph59%30.09 "Hg10 mi
10:15 am61 °FSunny.12 mph59%30.09 "Hg10 mi
9:55 am61 °FSunny.12 mph59%30.08 "Hg10 mi
9:35 am61 °FSunny.12 mph63%30.08 "Hg10 mi
9:15 am59 °FPassing clouds.9 mph63%30.08 "Hg10 mi
8:55 am59 °FPassing clouds.10 mph63%30.07 "Hg10 mi
8:15 am59 °FPassing clouds.10 mph68%30.07 "Hg10 mi
7:55 am59 °FPassing clouds.10 mph68%30.06 "Hg10 mi
7:15 am59 °FClear.12 mph72%30.05 "Hg10 mi
6:55 am59 °FClear.10 mph72%30.05 "Hg10 mi
6:35 am59 °FClear.9 mph72%30.05 "Hg10 mi
5:55 am59 °FClear.8 mph77%30.05 "Hg10 mi
5:35 am59 °FPassing clouds.7 mph77%30.06 "Hg10 mi
5:15 am59 °FPassing clouds.8 mph77%30.06 "Hg10 mi
4:15 am61 °FPassing clouds.10 mph72%30.05 "Hg10 mi
3:55 am61 °FPassing clouds.8 mph72%30.05 "Hg10 mi
3:35 am61 °FPassing clouds.10 mph72%30.05 "Hg10 mi
3:15 am61 °FPassing clouds.10 mph77%30.05 "Hg10 mi
2:55 am61 °FPassing clouds.12 mph77%30.05 "Hg10 mi
2:15 am61 °FOvercast.8 mph77%30.06 "Hg10 mi
1:55 am61 °FOvercast.10 mph77%30.07 "Hg10 mi
1:35 am61 °FOvercast.10 mph83%30.06 "Hg10 mi
1:15 am61 °FOvercast.7 mph83%30.06 "Hg10 mi
12:55 am61 °FOvercast.7 mph83%30.06 "Hg10 mi
12:35 am61 °FMostly cloudy.8 mph83%30.05 "Hg10 mi
11:55 pm
Sat, Nov 27
61 °FMostly cloudy.8 mph83%30.04 "Hg10 mi
11:15 pm61 °FPartly cloudy.8 mph83%30.02 "Hg10 mi
10:55 pm61 °FMostly cloudy.12 mph88%30.01 "Hg10 mi
10:15 pm61 °FOvercast.10 mph88%30.00 "Hg10 mi
9:55 pm63 °FOvercast.10 mph88%30.00 "Hg10 mi
9:15 pm63 °FMostly cloudy.9 mph88%29.99 "Hg10 mi
8:55 pm61 °FDrizzle. Mostly cloudy.9 mph94%29.98 "Hg8 mi
8:15 pm61 °FMostly cloudy.8 mph94%29.97 "Hg10 mi
7:55 pm59 °FMostly cloudy.8 mph100%29.97 "Hg10 mi
7:35 pm59 °FMostly cloudy.10 mph100%29.96 "Hg10 mi
7:15 pm59 °FMostly cloudy.9 mph100%29.95 "Hg10 mi
6:55 pm59 °FOvercast.6 mph100%29.95 "Hg7 mi
6:35 pm57 °FDrizzle. Mostly cloudy.6 mph100%29.95 "Hg9 mi
5:55 pm57 °FDrizzle. Overcast.3 mph100%29.95 "Hg7 mi
5:35 pm57 °FOvercast.3 mph100%29.94 "Hg10 mi
5:15 pm55 °FOvercast.No wind100%29.94 "Hg8 mi
4:55 pm57 °FDrizzle. Overcast.No wind100%29.94 "Hg9 mi
4:15 pm57 °FDrizzle. More clouds than sun.5 mph100%29.93 "Hg7 mi
Weather by CustomWeather, © 2021

See weather overview